THOR ABLESTAR DEB, 148

Orbit data source: Space-Track

THOR ABLESTAR DEB, 148 is space debris in LEO originally from a launch on Thu, 29 Jun 1961 UTC launched from the Air Force Eastern Test Range (AFETR). Debris objects in space refer to the collection of defunct objects orbiting the Earth. Examples of debris include non-operational satellites, rocket bodies, and fragments generated from explosions, collisions, or faulty payload assembly.

Loading next visibility...
Identifier
148, 1961-015AJ
Orbit
LEO
Country
Flag of USUS
Related business
Manufacturer
Unknown
Mission
Spacecraft
Bus & Motor
Unknown
Mass
Unknown
Launch date (UTC)
1961-06-29 (64 years ago)
Launch vehicle
Unknown
Launch site
Air Force Eastern Test Range (AFETR)
Object type
Payload
Rocket body
Debris
Shape & HBR
Unknown shape, 0.1 m
Radar Cross Section
Medium (>0.1 m² and <1 m²)

Expand to show TLE details & history
Last TLE update: 8 hours ago

TLE from 8 hours ago
0 THOR ABLESTAR DEB
1   148U 61015AJ  25342.79139984  .00002065  00000-0  11136-2 0  9999
2   148  65.7719 254.8093 0133143  57.2235 304.1591 14.10414400732127
Epoch: 2025-12-08T18:59Z
TLE epoch observation values (Epoch: 2025-12-08T18:59:36.946Z)
Latitude
-0.00003°
Longitude
-107.88002°
Altitude
806.755 km
Speed
7.478 km/s
True Right ascension
16h 59m 14s
True Declination
0° 00' 00"
Sunlit
Object was in daylight at epoch
Visualization orbit readout
Latitude
Unknown
Longitude
Unknown
Altitude
Unknown
Speed
Unknown
Apparent Right ascension
Unknown
Apparent Declination
Unknown
Sunlit
N/A
Visualization observer readout
Local Sidereal Time
00:55:18
Azimuth
Unknown
Elevation
Unknown
Doppler factor
Unknown
Orbital elements
Apogee altitude
952.776 km
Perigee altitude
760.129 km
Semi-major axis
7,234.59 km
Eccentricity
0.01331
Inclination
65.7719°
RAAN
254.8093°
Arg. of periapsis
57.2235°
True anomaly
302.88481°
Mean anomaly
304.1591°
Eccentric anomaly
303.52314°
Mean motion
3.52714 °/min
Orbital period
102.07 mins
BSTAR
0.0011136
Loading maneuver chart data...
Computing Atmospheric mass density...

Documentation

Showing up to 5 results
|